Location: Apeadero de Los Molinos-Guadarrama
(40.7091°N, 4.0689°W)
Time: 20:58:40
(UTC+00:00)

Cosmos 1536 - Visible Passes

Search period start: 19 September 2021 00:00
Search period end: 29 September 2021 00:00
Orbit: 539 x 558 km, 82.5° (Epoch: 19 September)

Date Brightness Start Highest point End Pass type
(mag) Time Alt. Az. Time Alt. Az. Time Alt. Az.
19 Sep 5.7 04:31:52 10° NNE 04:34:51 20° ENE 04:37:48 10° ESE visible
20 Sep 5.5 04:27:03 10° NNE 04:30:10 21° ENE 04:33:15 10° SE visible
21 Sep 5.4 04:22:15 10° NNE 04:25:28 23° ENE 04:28:40 10° SE visible
22 Sep 5.2 04:17:27 10° NNE 04:20:47 25° ENE 04:24:06 10° SE visible
23 Sep 5.0 04:12:40 10° NNE 04:16:06 27° ENE 04:19:29 10° SE visible
24 Sep 4.8 04:07:53 10° NNE 04:11:24 29° ENE 04:14:53 10° SE visible
25 Sep 4.6 04:03:07 10° NNE 04:06:42 32° ENE 04:10:16 10° SE visible
26 Sep 4.4 03:58:20 10° N 04:02:00 34° ENE 04:05:38 10° SE visible
26 Sep 4.4 05:35:43 10° NW 05:38:04 15° W 05:40:25 10° WSW visible
27 Sep 4.2 03:53:35 10° N 03:57:18 37° ENE 04:01:00 10° SSE visible
27 Sep 4.5 05:31:12 10° NW 05:33:19 14° W 05:35:27 10° WSW visible
28 Sep 4.0 03:48:49 10° N 03:52:36 41° ENE 03:56:21 10° SSE visible
28 Sep 4.6 05:26:43 10° WNW 05:28:34 13° W 05:30:26 10° WSW visible
